Regional Weather Roundup
Issued by NWS Sioux Falls, SD

Home | Current Version | Previous Version | Text Only | Print | Product List | Glossary On
Versions: 1 2 3 4 5 6 7 8 9 10 11 12 13 14 15 16 17 18 19 20 21 22 23 24 25 26 27 28 29 30 31 32 33 34 35 36 37 38 39 40 41 42 43 44 45 46 47 48 49 50
000
ASUS43 KFSD 062010
RWRFSD

WEATHER ROUNDUP FOR SE SOUTH DAKOTA/SW MINNESOTA/NW IOWA
NATIONAL WEATHER SERVICE SIOUX FALLS SD
200 PM CST FRI MAR 06 2015

NOTE: "FAIR" INDICATES FEW OR NO CLOUDS BELOW 12,000 FEET WITH NO
SIGNIFICANT WEATHER AND OR OBSTRUCTIONS TO VISIBILITY.


SDZ038>040-050-052>070-062100-
SOUTHEAST SOUTH DAKOTA

CITY           SKY/WX    TMP DP  RH WIND       PRES   REMARKS
CHAMBERLAIN    MOSUNNY   48  24  39 W3        30.12F
HURON          MOSUNNY   39  20  46 VRB5      30.13
MADISON        FAIR      39  25  56 NW12      30.10F
MITCHELL       MOSUNNY   47  19  33 NW9       30.14
SIOUX FALLS    CLOUDY    44  23  43 NW12      30.11F
WINNER         FAIR      53  21  28 NW9       30.12
YANKTON        PTSUNNY   54  21  28 NW15G23   30.13S
$$

MNZ071-072-080-081-089-090-097-098-062100-
SOUTHWEST MINNESOTA

CITY           SKY/WX    TMP DP  RH WIND       PRES   REMARKS
FAIRMONT       SUNNY     43  25  49 NW16      30.07S
JACKSON        SUNNY     43  28  56 NW12G17   30.08F
LUVERNE        MOSUNNY   43  27  52 NW12      30.11F
MARSHALL       SUNNY     36  19  51 N16       30.12F
MONTEVIDEO     SUNNY     36  21  55 N9G18     30.12S
REDWOOD FALLS  SUNNY     36  20  52 W17       30.09
TRACY          SUNNY     38  23  55 NW12      30.10F
WINDOM         SUNNY     39  25  56 NW7G16    30.09S
WORTHINGTON    SUNNY     39  23  52 NW13      30.11F
$$

IAZ001>003-012>014-020>022-031-032-NEZ013-014-SDZ071-062100-
NORTHWEST IOWA

CITY           SKY/WX    TMP DP  RH WIND       PRES   REMARKS
CHEROKEE       MOSUNNY   53  25  33 W9        30.09F
DENISON        SUNNY     52  21  30 SW10G17   30.10F
ESTHERVILLE    SUNNY     45  28  51 NW18      30.07F
LE MARS        MOSUNNY   55  21  26 NW17G24   30.10F
ORANGE CITY    PTSUNNY   54  19  26 W16G23    30.09F
SHELDON        MOSUNNY   46  25  42 NW14G22   30.08F
SIOUX CITY     PTSUNNY   60  18  19 NW22G29   30.08F
SPENCER        SUNNY     49  23  36 NW17      30.09F
STORM LAKE     MOSUNNY   50  25  37 W14       30.09F
$$

ABBREVIATIONS USED IN REMARKS
   TC - TEMPERATURE IN CELSIUS
  WCI - WIND CHILL INDEX
   HX - HEAT INDEX
  VSB - VISIBILITY



USA.gov is the U.S. government's official web portal to all federal, state and local government web resources and services.